Regional Weather Roundup
Issued by NWS

Home | Current Version | Previous Version | Graphics & Text | Print | Product List | Glossary On
Versions: 1 2 3 4 5 6 7 8 9 10 11 12 13 14 15 16 17 18 19 20 21 22 23 24 25 26 27 28 29 30 31 32 33 34 35 36 37 38 39 40 41 42 43 44 45 46 47 48 49 50
000
ASUS43 KOAX 231210
RWRNE

WEATHER ROUNDUP FOR NEBRASKA
NATIONAL WEATHER SERVICE OMAHA NE
700 AM CDT WED MAY 23 2018

NOTES: SATELLITE DATA IS BEING USED TO AUGMENT CLOUD COVER ABOVE
       12000 FEET.
       "FAIR" INDICATES FEW OR NO CLOUDS BELOW 12,000 FEET WITH NO
       SIGNIFICANT WEATHER AND/OR OBSTRUCTIONS TO VISIBILITY.


NEZ001>004-019>022-054>056-231300-
NEBRASKA PANHANDLE

CITY           SKY/WX    TMP DP  RH WIND       PRES   REMARKS
SCOTTSBLUFF    PTCLDY    51  51 100 NW5       29.96F
6HR MIN TEMP:  51; 6HR MAX TEMP:  61;

ALLIANCE       CLOUDY    53  53 100 CALM      29.94R
6HR MIN TEMP:  50; 6HR MAX TEMP:  63;

CHADRON        CLOUDY    56  56 100 SW3       29.94R
6HR MIN TEMP:  52; 6HR MAX TEMP:  58; 6HR PCP:  0.15;

GORDON         FAIR      56  54  92 CALM      29.91S
6HR MIN TEMP:  55; 6HR MAX TEMP:  66;

KIMBALL        PTCLDY    51  50  97 NW7       30.00F
SIDNEY         MOCLDY    52  50  93 CALM      29.98R
6HR MIN TEMP:  52; 6HR MAX TEMP:  60;

$$

NEZ057>060-069>072-079>082-231300-
SOUTHWEST NEBRASKA

CITY           SKY/WX    TMP DP  RH WIND       PRES   REMARKS
NORTH PLATTE   PTCLDY    66  59  78 S10G20    29.94S
6HR MIN TEMP:  62; 6HR MAX TEMP:  70;

IMPERIAL       MOCLDY    61  58  90 SE10      29.96R
6HR MIN TEMP:  57; 6HR MAX TEMP:  67;

LEXINGTON      PTCLDY    67  61  80 S8        29.97R
MCCOOK         PTCLDY    64  59  83 S10       29.96R
6HR MIN TEMP:  63; 6HR MAX TEMP:  68;

OGALLALA       MOCLDY    63  56  80 W7        29.95R
$$

NEZ005>010-023>029-035>040-094-231300-
NORTH CENTRAL NEBRASKA

CITY           SKY/WX    TMP DP  RH WIND       PRES   REMARKS
VALENTINE      PTCLDY    68  62  81 S12       29.89S
6HR MIN TEMP:  65; 6HR MAX TEMP:  69;

BROKEN BOW     MOCLDY    67  61  81 S9        29.97R
6HR MIN TEMP:  67; 6HR MAX TEMP:  72;

O`NEILL        CLOUDY    69  64  84 S9        29.97S
ORD            MOCLDY    67  62  84 SE5       29.97R
6HR MIN TEMP:  67; 6HR MAX TEMP:  73;

THEDFORD       MOCLDY    66  59  78 S14       29.93R
$$

NEZ041-046>049-061>064-073>077-083>087-231300-
SOUTH CENTRAL NEBRASKA

CITY           SKY/WX    TMP DP  RH WIND       PRES   REMARKS
GRAND ISLAND   CLOUDY    67  63  87 S10       30.01R
6HR MIN TEMP:  65; 6HR MAX TEMP:  70;

AURORA         MOCLDY    68  65  91 S13       30.01R
HASTINGS       CLEAR     67  63  87 SE8       30.02R
6HR MIN TEMP:  66; 6HR MAX TEMP:  72;

HEBRON         CLOUDY    70  65  83 S8        30.03R
HOLDREGE       CLOUDY    66  62  87 S9        29.99R
KEARNEY        CLOUDY    68  61  78 S13       30.00R
YORK           CLOUDY    68  68 100 S10       30.02S
$$

NEZ011>018-030>034-042>045-231300-
NORTHEAST NEBRASKA

CITY           SKY/WX    TMP DP  RH WIND       PRES   REMARKS
NORFOLK        PTCLDY    68  64  87 SE9       30.00R
6HR MIN TEMP:  65; 6HR MAX TEMP:  71;

ALBION         CLOUDY    68  64  88 SE7       30.00R
BLAIR          CLEAR     69  64  85 S9        30.04S
COLUMBUS       CLOUDY    69  64  84 S12       30.01S
FREMONT        CLEAR     69  66  89 SE7       30.04R
TEKAMAH        CLEAR     66  63  90 SE10      30.03R
6HR MIN TEMP:  64; 6HR MAX TEMP:  67;

WAYNE          CLEAR     65  64  97 S8        30.01S
$$

NEZ050>053-065>068-078-088>093-231300-
SOUTHEAST NEBRASKA

CITY           SKY/WX    TMP DP  RH WIND       PRES   REMARKS
LINCOLN        CLEAR     69  64  84 S7        30.03R
6HR MIN TEMP:  66; 6HR MAX TEMP:  72;

OMAHA EPPLEY   PTCLDY    68  64  87 S7        30.04R
6HR MIN TEMP:  67; 6HR MAX TEMP:  72;

BEATRICE       MOCLDY    71  66  86 S9        30.04R
FALLS CITY     CLEAR     66  64  93 SE3       30.06R
6HR MIN TEMP:  64; 6HR MAX TEMP:  73;

NEBRASKA CITY  CLEAR     67  67 100 S8        30.06R
PLATTSMOUTH    CLEAR     68  64  88 SE10      30.05S
$$

NEZ044-045-051>053-067-231300-
OMAHA AREA

CITY           SKY/WX    TMP DP  RH WIND       PRES   REMARKS
OMAHA EPPLEY   PTCLDY    68  64  87 S7        30.04R
6HR MIN TEMP:  67; 6HR MAX TEMP:  72;

BLAIR          CLEAR     69  64  85 S9        30.04S
FREMONT        CLEAR     69  66  89 SE7       30.04R
MILLARD        CLEAR     67  65  94 SE5       30.04S
OFFUTT AFB     CLEAR     64  64  99 CALM      30.04R
PLATTSMOUTH    CLEAR     68  64  88 SE10      30.05S
WAHOO          FAIR      65  63  91 SE7       30.04R
$$




USA.gov is the U.S. government's official web portal to all federal, state and local government web resources and services.